Regional Weather Roundup
Issued by NWS Raleigh/Durham, NC

Home | Current Version | Previous Version | Text Only | Print | Product List | Glossary On
Versions: 1 2 3 4 5 6 7 8 9 10 11 12 13 14 15 16 17 18 19 20 21 22 23 24 25 26 27 28 29 30 31 32 33 34 35 36 37 38 39 40 41 42 43 44 45 46 47 48 49 50
385
ASUS42 KRAH 250910
RWRRAH
NORTH CAROLINA WEATHER ROUNDUP
NATIONAL WEATHER SERVICE RALEIGH NC
500 AM EDT WED MAY 25 2016

NOTE: "FAIR" INDICATES FEW OR NO CLOUDS BELOW 12,000 FEET WITH NO
SIGNIFICANT WEATHER AND/OR OBSTRUCTIONS TO VISIBILITY.

NCZ001-053-055-056-065-067-251000-
WESTERN NORTH CAROLINA

CITY           SKY/WX    TMP DP  RH WIND       PRES   REMARKS
ASHEVILLE      CLEAR     52  48  86 CALM      30.25R
JEFFERSON      NOT AVBL
MORGANTON      CLEAR     51  51 100 NW3       30.24S
HICKORY        CLEAR     57  54  89 NE3       30.18F
RUTHERFORDTON  CLEAR     55  55 100 CALM      30.19S
MOUNT AIRY     CLEAR     55  53  91 CALM      30.20F
BOONE          CLEAR     42  42 100 CALM      30.28S FOG
$$

NCZ021-022-025-041-071-084-088-251000-
CENTRAL NORTH CAROLINA

CITY           SKY/WX    TMP DP  RH WIND       PRES   REMARKS
CHARLOTTE      PTCLDY    58  54  86 CALM      30.18F
GREENSBORO     CLEAR     59  55  87 CALM      30.17F
WINSTON-SALEM  CLEAR     57  53  86 CALM      30.19S
RALEIGH-DURHAM MOCLDY    63  55  75 SW3       30.18R
FORT BRAGG     CLEAR     62  57  84 W1        30.17F
FAYETTEVILLE   CLEAR     61  57  87 SW3       30.18S
BURLINGTON     PTCLDY    57  54  89 S8        30.18R
LAURINBURG     CLEAR     59  57  93 CALM      30.19S
$$

NCZ011-015-027-028-043-044-047-080-103-251000-
NORTHEASTERN NORTH CAROLINA

CITY           SKY/WX    TMP DP  RH WIND       PRES   REMARKS
ROCKY MT-WILSO CLEAR     59  56  89 S3        30.17R
GREENVILLE     CLEAR     61  59  94 CALM      30.19R
WASHINGTON     CLEAR     61  56  85 CALM      30.18R
ELIZABETH CITY PTCLDY    63  58  83 SW8       30.15R
MANTEO         NOT AVBL
CAPE HATTERAS  CLEAR     67  63  87 W6        30.17R
$$

NCZ078-087-090-091-093-098-101-251000-
SOUTHEASTERN NORTH CAROLINA

CITY           SKY/WX    TMP DP  RH WIND       PRES   REMARKS
LUMBERTON      CLEAR     60  57  89 CALM      30.18S
GOLDSBORO      CLEAR     61  61 100 W5        30.17S
KINSTON        CLEAR     61  57  88 SW5       30.19R
KENANSVILLE    CLEAR     57  56  95 CALM      30.19F
NEW BERN       CLEAR     62  56  80 W6        30.19S
CHERRY POINT   CLEAR     59  56  89 CALM      30.19S
BEAUFORT       CLEAR     67  60  78 CALM      30.18S
JACKSONVILLE   CLEAR     60  57  89 W5        30.18R
WILMINGTON     CLEAR     61  59  93 CALM      30.19R
$$





USA.gov is the U.S. government's official web portal to all federal, state and local government web resources and services.